This is the latest recevied weather packets stored in our database for station/object AI9F. If no packets are shown the sender has not sent any weather packets the latest 10 day(s).
| Time | Temp. | Humidity | Pressure | Rain* | Wind** | Luminosity | Snow |
|---|---|---|---|---|---|---|---|
| 1777864250 | 15.56° C | 59% | 1011.3 hPa | 0 mm | - | 0 W/m² | - |
| 1777863948 | 15.56° C | 55% | 1011.3 hPa | 0 mm | - | 0 W/m² | - |
| 1777863644 | 15.56° C | 55% | 1011.3 hPa | 0 mm | - | 0 W/m² | - |
| 1777863341 | 15.56° C | 56% | 1011.1 hPa | 0 mm | - | 0 W/m² | - |
| 1777863038 | 15.56° C | 56% | 1011.2 hPa | 0 mm | - | 0 W/m² | - |
| 1777862735 | 15.56° C | 56% | 1011.6 hPa | 0 mm | - | 0 W/m² | - |
| 1777862432 | 15.56° C | 56% | 1011.1 hPa | 0 mm | - | 0 W/m² | - |
| 1777862128 | 16.11° C | 55% | 1011.2 hPa | 0 mm | - | 0 W/m² | - |
| 1777861824 | 16.11° C | 52% | 1010.8 hPa | 0 mm | - | 0 W/m² | - |
| 1777861520 | 16.11° C | 53% | 1011.1 hPa | 0 mm | - | 0 W/m² | - |
| 1777861217 | 16.11° C | 52% | 1010.9 hPa | 0 mm | - | 0 W/m² | - |
| 1777860915 | 15.56° C | 53% | 1010.8 hPa | 0 mm | - | 0 W/m² | - |
| 1777860611 | 15.56° C | 53% | 1010.9 hPa | 0 mm | - | 0 W/m² | - |
| 1777860308 | 15.56° C | 54% | 1011.1 hPa | 0 mm | - | 0 W/m² | - |
| 1777860005 | 15.56° C | 53% | 1011.1 hPa | 0 mm | - | 0 W/m² | - |
| 1777859701 | 15.56° C | 53% | 1010.8 hPa | 0 mm | - | 0 W/m² | - |
| 1777859397 | 16.11° C | 52% | 1010.7 hPa | 0 mm | - | 0 W/m² | - |
| 1777859093 | 16.11° C | 52% | 1010.7 hPa | 0 mm | - | 0 W/m² | - |
| 1777858790 | 16.67° C | 50% | 1010.8 hPa | 0 mm | - | 0 W/m² | - |
| 1777858489 | 16.67° C | 49% | 1010.8 hPa | 0 mm | - | 0 W/m² | - |
| 1777858184 | 16.67° C | 49% | 1010.8 hPa | 0 mm | - | 0 W/m² | - |
| 1777857883 | 16.67° C | 49% | 1010.7 hPa | 0 mm | - | 0 W/m² | - |
| 1777857580 | 16.67° C | 49% | 1010.7 hPa | 0 mm | - | 0 W/m² | - |
| 1777857276 | 16.67° C | 50% | 1010.8 hPa | 0 mm | - | 0 W/m² | - |
| 1777856972 | 16.67° C | 51% | 1011.1 hPa | 0 mm | - | 0 W/m² | - |
* Rain latest hour (hover to see other rain measurements)
** Current wind speed in m/s (hover to see current wind gust speed)